Time,TemperatureF,DewpointF,PressureIn,WindDirection,WindDirectionDegrees,WindSpeedMPH,WindSpeedGustMPH,Humidity,HourlyPrecipIn,Conditions,Clouds,dailyrainin,SoftwareType,DateUTC
2013-07-08 00:05:00,77.6,72.0,30.10,East,80,0.0,0.0,83,0.00,,,0.00,Wunderground v.1.15,2013-07-08 04:05:00,
2013-07-08 00:10:00,77.5,71.9,30.10,East,81,0.0,0.0,83,0.00,,,0.00,Wunderground v.1.15,2013-07-08 04:10:00,
2013-07-08 00:15:00,77.4,71.8,30.11,East,81,0.0,0.0,83,0.00,,,0.00,Wunderground v.1.15,2013-07-08 04:15:00,
2013-07-08 00:25:00,77.2,71.6,30.11,East,80,0.0,0.0,83,0.00,,,0.00,Wunderground v.1.15,2013-07-08 04:25:00,
2013-07-08 00:30:00,76.9,71.3,30.10,East,80,0.0,0.0,83,0.00,,,0.00,Wunderground v.1.15,2013-07-08 04:30:00,
2013-07-08 00:35:00,76.7,71.1,30.11,East,81,0.0,0.0,83,0.00,,,0.00,Wunderground v.1.15,2013-07-08 04:35:00,
2013-07-08 00:40:00,76.5,70.9,30.11,East,81,0.0,0.0,83,0.00,,,0.00,Wunderground v.1.15,2013-07-08 04:40:00,
2013-07-08 00:45:00,76.4,70.9,30.10,East,80,0.0,0.0,83,0.00,,,0.00,Wunderground v.1.15,2013-07-08 04:45:00,
2013-07-08 00:50:00,76.1,70.6,30.10,East,81,0.0,0.0,83,0.00,,,0.00,Wunderground v.1.15,2013-07-08 04:50:00,
2013-07-08 01:00:00,76.3,71.1,30.10,East,81,0.0,0.0,84,0.00,,,0.00,Wunderground v.1.15,2013-07-08 05:00:00,
2013-07-08 01:05:00,76.3,71.1,30.10,East,81,0.0,0.0,84,0.00,,,0.00,Wunderground v.1.15,2013-07-08 05:05:00,
2013-07-08 01:10:00,76.3,71.1,30.10,East,81,0.0,0.0,84,0.00,,,0.00,Wunderground v.1.15,2013-07-08 05:10:00,
2013-07-08 01:15:00,76.4,71.2,30.10,East,80,0.0,0.0,84,0.00,,,0.00,Wunderground v.1.15,2013-07-08 05:15:00,
2013-07-08 01:20:00,76.5,71.3,30.10,East,80,0.0,0.0,84,0.00,,,0.00,Wunderground v.1.15,2013-07-08 05:20:00,
2013-07-08 01:30:00,76.5,71.3,30.09,East,80,0.0,0.0,84,0.00,,,0.00,Wunderground v.1.15,2013-07-08 05:30:00,
2013-07-08 01:40:00,76.5,71.3,30.09,East,80,0.0,0.0,84,0.00,,,0.00,Wunderground v.1.15,2013-07-08 05:40:00,
2013-07-08 01:45:00,76.5,71.3,30.09,East,80,0.0,0.0,84,0.00,,,0.00,Wunderground v.1.15,2013-07-08 05:45:00,
2013-07-08 01:50:00,76.6,71.4,30.09,East,80,0.0,0.0,84,0.00,,,0.00,Wunderground v.1.15,2013-07-08 05:50:00,
2013-07-08 01:55:00,76.6,71.4,30.08,East,81,0.0,0.0,84,0.00,,,0.00,Wunderground v.1.15,2013-07-08 05:55:00,
2013-07-08 02:00:00,76.5,71.3,30.09,East,80,0.0,0.0,84,0.00,,,0.00,Wunderground v.1.15,2013-07-08 06:00:00,
2013-07-08 02:05:00,76.5,71.3,30.09,East,81,0.0,0.0,84,0.00,,,0.00,Wunderground v.1.15,2013-07-08 06:05:00,
2013-07-08 02:10:00,76.5,71.3,30.08,East,80,0.0,0.0,84,0.00,,,0.00,Wunderground v.1.15,2013-07-08 06:10:00,
2013-07-08 02:15:00,76.5,71.3,30.08,East,80,0.0,0.0,84,0.00,,,0.00,Wunderground v.1.15,2013-07-08 06:15:00,
2013-07-08 02:20:00,76.5,71.3,30.08,East,81,0.0,1.0,84,0.00,,,0.00,Wunderground v.1.15,2013-07-08 06:20:00,
2013-07-08 02:25:00,76.5,71.3,30.08,East,81,0.0,1.0,84,0.00,,,0.00,Wunderground v.1.15,2013-07-08 06:25:00,
2013-07-08 02:30:00,76.5,71.3,30.08,East,80,0.0,0.0,84,0.00,,,0.00,Wunderground v.1.15,2013-07-08 06:30:00,
2013-07-08 02:35:00,76.6,71.4,30.08,East,81,0.0,0.0,84,0.00,,,0.00,Wunderground v.1.15,2013-07-08 06:35:00,
2013-07-08 02:40:00,76.6,71.4,30.08,East,80,0.0,0.0,84,0.00,,,0.00,Wunderground v.1.15,2013-07-08 06:40:00,
2013-07-08 02:45:00,76.5,71.3,30.08,East,80,0.0,0.0,84,0.00,,,0.00,Wunderground v.1.15,2013-07-08 06:45:00,
2013-07-08 02:50:00,76.4,71.2,30.08,East,81,0.0,0.0,84,0.00,,,0.00,Wunderground v.1.15,2013-07-08 06:50:00,
2013-07-08 02:55:00,76.2,71.0,30.08,East,81,0.0,0.0,84,0.00,,,0.00,Wunderground v.1.15,2013-07-08 06:55:00,
2013-07-08 03:05:00,75.9,70.7,30.08,East,81,0.0,0.0,84,0.00,,,0.00,Wunderground v.1.15,2013-07-08 07:05:00,
2013-07-08 03:10:00,75.7,70.5,30.08,East,80,0.0,0.0,84,0.00,,,0.00,Wunderground v.1.15,2013-07-08 07:10:00,
2013-07-08 03:15:00,75.6,70.8,30.08,East,81,0.0,0.0,85,0.00,,,0.00,Wunderground v.1.15,2013-07-08 07:15:00,
2013-07-08 03:20:00,75.6,70.8,30.07,East,81,0.0,0.0,85,0.00,,,0.00,Wunderground v.1.15,2013-07-08 07:20:00,
2013-07-08 03:25:00,75.5,70.7,30.07,East,80,0.0,0.0,85,0.00,,,0.00,Wunderground v.1.15,2013-07-08 07:25:00,
2013-07-08 03:35:00,75.4,70.2,30.07,East,80,0.0,0.0,84,0.00,,,0.00,Wunderground v.1.15,2013-07-08 07:35:00,
2013-07-08 03:40:00,75.4,70.6,30.07,East,80,0.0,0.0,85,0.00,,,0.00,Wunderground v.1.15,2013-07-08 07:40:00,
2013-07-08 03:45:00,75.5,70.7,30.07,East,81,0.0,0.0,85,0.00,,,0.00,Wunderground v.1.15,2013-07-08 07:45:00,
2013-07-08 03:50:00,75.5,70.7,30.07,East,80,0.0,0.0,85,0.00,,,0.00,Wunderground v.1.15,2013-07-08 07:50:00,
2013-07-08 03:55:00,75.5,70.7,30.07,East,80,0.0,0.0,85,0.00,,,0.00,Wunderground v.1.15,2013-07-08 07:55:00,
2013-07-08 04:00:00,75.3,70.5,30.07,East,81,0.0,0.0,85,0.00,,,0.00,Wunderground v.1.15,2013-07-08 08:00:00,
2013-07-08 04:05:00,75.2,70.4,30.07,East,80,0.0,0.0,85,0.00,,,0.00,Wunderground v.1.15,2013-07-08 08:05:00,
2013-07-08 04:10:00,75.0,70.2,30.07,East,81,0.0,0.0,85,0.00,,,0.00,Wunderground v.1.15,2013-07-08 08:10:00,
2013-07-08 04:20:00,74.7,69.9,30.07,East,81,0.0,0.0,85,0.00,,,0.00,Wunderground v.1.15,2013-07-08 08:20:00,
2013-07-08 04:25:00,74.4,69.6,30.07,East,80,0.0,0.0,85,0.00,,,0.00,Wunderground v.1.15,2013-07-08 08:25:00,
2013-07-08 04:35:00,73.8,69.0,30.07,East,80,0.0,0.0,85,0.00,,,0.00,Wunderground v.1.15,2013-07-08 08:35:00,
2013-07-08 04:40:00,73.6,68.8,30.07,East,81,0.0,0.0,85,0.00,,,0.00,Wunderground v.1.15,2013-07-08 08:40:00,
2013-07-08 04:50:00,73.4,68.6,30.07,East,81,0.0,0.0,85,0.00,,,0.00,Wunderground v.1.15,2013-07-08 08:50:00,
2013-07-08 04:55:00,73.5,68.7,30.07,East,81,0.0,0.0,85,0.00,,,0.00,Wunderground v.1.15,2013-07-08 08:55:00,
2013-07-08 05:05:00,74.3,69.5,30.07,East,81,0.0,0.0,85,0.00,,,0.00,Wunderground v.1.15,2013-07-08 09:05:00,
2013-07-08 05:15:00,74.4,69.6,30.07,East,80,0.0,0.0,85,0.00,,,0.00,Wunderground v.1.15,2013-07-08 09:15:00,
2013-07-08 05:20:00,74.4,69.6,30.07,East,81,0.0,0.0,85,0.00,,,0.00,Wunderground v.1.15,2013-07-08 09:20:00,
2013-07-08 05:25:00,74.4,69.6,30.07,East,81,0.0,0.0,85,0.00,,,0.00,Wunderground v.1.15,2013-07-08 09:25:00,
2013-07-08 05:30:00,74.5,69.7,30.07,East,80,0.0,0.0,85,0.00,,,0.00,Wunderground v.1.15,2013-07-08 09:30:00,
2013-07-08 05:35:00,74.5,69.7,30.07,East,81,0.0,0.0,85,0.00,,,0.00,Wunderground v.1.15,2013-07-08 09:35:00,
2013-07-08 05:45:00,74.8,70.0,30.07,East,81,0.0,0.0,85,0.00,,,0.00,Wunderground v.1.15,2013-07-08 09:45:00,
2013-07-08 05:50:00,74.8,70.0,30.07,East,80,0.0,0.0,85,0.00,,,0.00,Wunderground v.1.15,2013-07-08 09:50:00,
2013-07-08 05:55:00,74.8,70.0,30.07,East,81,0.0,0.0,85,0.00,,,0.00,Wunderground v.1.15,2013-07-08 09:55:00,
2013-07-08 06:00:00,74.7,69.9,30.08,East,81,0.0,0.0,85,0.00,,,0.00,Wunderground v.1.15,2013-07-08 10:00:00,
2013-07-08 06:05:00,74.7,69.9,30.08,East,80,0.0,0.0,85,0.00,,,0.00,Wunderground v.1.15,2013-07-08 10:05:00,
2013-07-08 06:10:00,74.9,70.1,30.08,East,80,0.0,0.0,85,0.00,,,0.00,Wunderground v.1.15,2013-07-08 10:10:00,
2013-07-08 06:15:00,75.0,70.2,30.08,East,80,0.0,0.0,85,0.00,,,0.00,Wunderground v.1.15,2013-07-08 10:15:00,
2013-07-08 06:20:00,75.0,70.2,30.08,East,81,0.0,0.0,85,0.00,,,0.00,Wunderground v.1.15,2013-07-08 10:20:00,
2013-07-08 06:25:00,74.9,70.1,30.08,East,80,0.0,0.0,85,0.00,,,0.00,Wunderground v.1.15,2013-07-08 10:25:00,
2013-07-08 06:30:00,74.9,70.1,30.08,East,80,0.0,0.0,85,0.00,,,0.00,Wunderground v.1.15,2013-07-08 10:30:00,
2013-07-08 06:35:00,74.9,70.1,30.08,East,81,0.0,0.0,85,0.00,,,0.00,Wunderground v.1.15,2013-07-08 10:35:00,
2013-07-08 06:40:00,75.0,70.2,30.08,East,80,0.0,0.0,85,0.00,,,0.00,Wunderground v.1.15,2013-07-08 10:40:00,
2013-07-08 06:45:00,75.1,70.3,30.08,East,80,0.0,0.0,85,0.00,,,0.00,Wunderground v.1.15,2013-07-08 10:45:00,
2013-07-08 06:50:00,75.2,70.4,30.08,East,81,0.0,0.0,85,0.00,,,0.00,Wunderground v.1.15,2013-07-08 10:50:00,
2013-07-08 06:55:00,75.3,70.5,30.08,East,81,0.0,0.0,85,0.00,,,0.00,Wunderground v.1.15,2013-07-08 10:55:00,
2013-07-08 07:00:00,75.3,70.5,30.08,East,80,0.0,0.0,85,0.00,,,0.00,Wunderground v.1.15,2013-07-08 11:00:00,
2013-07-08 07:05:00,75.5,70.7,30.09,East,81,0.0,0.0,85,0.00,,,0.00,Wunderground v.1.15,2013-07-08 11:05:00,
2013-07-08 07:10:00,75.6,71.1,30.09,East,81,0.0,0.0,86,0.00,,,0.00,Wunderground v.1.15,2013-07-08 11:10:00,
2013-07-08 07:15:00,75.8,71.3,30.09,East,80,0.0,0.0,86,0.00,,,0.00,Wunderground v.1.15,2013-07-08 11:15:00,
2013-07-08 07:20:00,75.9,71.1,30.09,East,81,0.0,0.0,85,0.00,,,0.00,Wunderground v.1.15,2013-07-08 11:20:00,
2013-07-08 07:25:00,76.3,71.8,30.09,East,80,0.0,0.0,86,0.00,,,0.00,Wunderground v.1.15,2013-07-08 11:25:00,
2013-07-08 07:30:00,76.5,71.7,30.09,East,81,0.0,0.0,85,0.00,,,0.00,Wunderground v.1.15,2013-07-08 11:30:00,
2013-07-08 07:35:00,76.8,71.9,30.09,East,80,0.0,0.0,85,0.00,,,0.00,Wunderground v.1.15,2013-07-08 11:35:00,
2013-07-08 07:40:00,77.0,72.1,30.09,East,81,0.0,0.0,85,0.00,,,0.00,Wunderground v.1.15,2013-07-08 11:40:00,
2013-07-08 07:45:00,77.4,72.5,30.09,East,80,0.0,0.0,85,0.00,,,0.00,Wunderground v.1.15,2013-07-08 11:45:00,
2013-07-08 07:50:00,77.6,72.7,30.09,East,81,1.0,2.0,85,0.00,,,0.00,Wunderground v.1.15,2013-07-08 11:50:00,
2013-07-08 07:55:00,77.8,72.9,30.09,East,80,2.0,2.0,85,0.00,,,0.00,Wunderground v.1.15,2013-07-08 11:55:00,
2013-07-08 08:05:00,78.4,73.5,30.09,East,81,2.0,2.0,85,0.00,,,0.00,Wunderground v.1.15,2013-07-08 12:05:00,
2013-07-08 08:10:00,78.7,73.8,30.09,East,80,2.0,2.0,85,0.00,,,0.00,Wunderground v.1.15,2013-07-08 12:10:00,
2013-07-08 08:15:00,78.9,74.0,30.10,East,81,2.0,3.0,85,0.00,,,0.00,Wunderground v.1.15,2013-07-08 12:15:00,
2013-07-08 08:25:00,79.4,74.1,30.10,East,81,2.0,3.0,84,0.00,,,0.00,Wunderground v.1.15,2013-07-08 12:25:00,
2013-07-08 08:35:00,80.0,74.7,30.10,ENE,72,2.0,4.0,84,0.00,,,0.00,Wunderground v.1.15,2013-07-08 12:35:00,
2013-07-08 08:40:00,80.2,74.9,30.10,East,82,3.0,3.0,84,0.00,,,0.00,Wunderground v.1.15,2013-07-08 12:40:00,
2013-07-08 08:45:00,80.6,75.3,30.10,ENE,76,2.0,3.0,84,0.00,,,0.00,Wunderground v.1.15,2013-07-08 12:45:00,
2013-07-08 08:50:00,80.8,75.2,30.10,ENE,66,1.0,2.0,83,0.00,,,0.00,Wunderground v.1.15,2013-07-08 12:50:00,
2013-07-08 08:55:00,81.0,75.3,30.10,ENE,68,3.0,5.0,83,0.00,,,0.00,Wunderground v.1.15,2013-07-08 12:55:00,
2013-07-08 09:00:00,81.1,75.4,30.10,ENE,71,3.0,4.0,83,0.00,,,0.00,Wunderground v.1.15,2013-07-08 13:00:00,
2013-07-08 09:05:00,81.3,75.6,30.10,East,81,3.0,4.0,83,0.00,,,0.00,Wunderground v.1.15,2013-07-08 13:05:00,
2013-07-08 09:10:00,81.5,75.5,30.10,East,81,2.0,2.0,82,0.00,,,0.00,Wunderground v.1.15,2013-07-08 13:10:00,
2013-07-08 09:15:00,81.7,75.7,30.10,East,88,2.0,3.0,82,0.00,,,0.00,Wunderground v.1.15,2013-07-08 13:15:00,
2013-07-08 09:25:00,81.9,75.5,30.10,East,94,2.0,4.0,81,0.00,,,0.00,Wunderground v.1.15,2013-07-08 13:25:00,
2013-07-08 09:35:00,81.8,75.4,30.11,East,80,2.0,4.0,81,0.00,,,0.00,Wunderground v.1.15,2013-07-08 13:35:00,
2013-07-08 09:40:00,82.3,75.9,30.11,NE,46,2.0,3.0,81,0.00,,,0.00,Wunderground v.1.15,2013-07-08 13:40:00,
2013-07-08 09:45:00,82.1,75.3,30.11,ENE,65,2.0,3.0,80,0.00,,,0.00,Wunderground v.1.15,2013-07-08 13:45:00,
2013-07-08 09:50:00,82.4,75.6,30.11,NE,51,2.0,3.0,80,0.00,,,0.00,Wunderground v.1.15,2013-07-08 13:50:00,
2013-07-08 09:55:00,82.9,76.1,30.11,NE,38,3.0,3.0,80,0.00,,,0.00,Wunderground v.1.15,2013-07-08 13:55:00,
2013-07-08 10:00:00,83.2,76.0,30.12,NE,41,3.0,5.0,79,0.00,,,0.00,Wunderground v.1.15,2013-07-08 14:00:00,
2013-07-08 10:05:00,83.6,76.0,30.11,NE,49,3.0,5.0,78,0.00,,,0.00,Wunderground v.1.15,2013-07-08 14:05:00,
2013-07-08 10:15:00,83.6,76.0,30.11,ENE,71,3.0,3.0,78,0.00,,,0.00,Wunderground v.1.15,2013-07-08 14:15:00,
2013-07-08 10:20:00,83.9,76.3,30.11,NE,56,3.0,3.0,78,0.00,,,0.00,Wunderground v.1.15,2013-07-08 14:20:00,
2013-07-08 10:25:00,84.1,76.1,30.11,NE,56,3.0,3.0,77,0.00,,,0.00,Wunderground v.1.15,2013-07-08 14:25:00,
2013-07-08 10:30:00,84.3,76.3,30.12,NE,51,4.0,4.0,77,0.00,,,0.00,Wunderground v.1.15,2013-07-08 14:30:00,
2013-07-08 10:35:00,84.4,76.4,30.12,ENE,59,4.0,4.0,77,0.00,,,0.00,Wunderground v.1.15,2013-07-08 14:35:00,
2013-07-08 10:40:00,84.3,76.3,30.12,East,89,3.0,3.0,77,0.00,,,0.00,Wunderground v.1.15,2013-07-08 14:40:00,
2013-07-08 10:45:00,84.0,76.0,30.12,East,88,1.0,3.0,77,0.00,,,0.00,Wunderground v.1.15,2013-07-08 14:45:00,
2013-07-08 10:50:00,84.2,76.2,30.12,East,84,1.0,1.0,77,0.00,,,0.00,Wunderground v.1.15,2013-07-08 14:50:00,
2013-07-08 10:55:00,84.6,76.6,30.12,East,81,2.0,3.0,77,0.00,,,0.00,Wunderground v.1.15,2013-07-08 14:55:00,
2013-07-08 11:00:00,85.2,77.2,30.12,East,81,1.0,1.0,77,0.00,,,0.00,Wunderground v.1.15,2013-07-08 15:00:00,
2013-07-08 11:05:00,85.6,76.8,30.12,East,81,1.0,4.0,75,0.00,,,0.00,Wunderground v.1.15,2013-07-08 15:05:00,
2013-07-08 11:10:00,85.5,76.7,30.12,ESE,105,2.0,3.0,75,0.00,,,0.00,Wunderground v.1.15,2013-07-08 15:10:00,
2013-07-08 11:15:00,85.6,76.8,30.12,East,94,3.0,4.0,75,0.00,,,0.00,Wunderground v.1.15,2013-07-08 15:15:00,
2013-07-08 11:20:00,85.5,76.3,30.12,East,86,3.0,3.0,74,0.00,,,0.00,Wunderground v.1.15,2013-07-08 15:20:00,
2013-07-08 11:25:00,85.6,76.4,30.12,ENE,71,4.0,4.0,74,0.00,,,0.00,Wunderground v.1.15,2013-07-08 15:25:00,
2013-07-08 11:30:00,85.7,76.5,30.12,ENE,71,3.0,3.0,74,0.00,,,0.00,Wunderground v.1.15,2013-07-08 15:30:00,
2013-07-08 11:35:00,85.8,76.5,30.12,ENE,71,2.0,3.0,74,0.00,,,0.00,Wunderground v.1.15,2013-07-08 15:35:00,
2013-07-08 11:40:00,86.2,76.9,30.12,ENE,70,2.0,6.0,74,0.00,,,0.00,Wunderground v.1.15,2013-07-08 15:40:00,
2013-07-08 11:45:00,86.7,76.6,30.12,ENE,65,2.0,6.0,72,0.00,,,0.00,Wunderground v.1.15,2013-07-08 15:45:00,
2013-07-08 11:50:00,86.9,76.8,30.12,NE,49,4.0,4.0,72,0.00,,,0.00,Wunderground v.1.15,2013-07-08 15:50:00,
2013-07-08 11:55:00,86.7,76.6,30.12,NE,38,4.0,4.0,72,0.00,,,0.00,Wunderground v.1.15,2013-07-08 15:55:00,
2013-07-08 12:00:00,86.8,77.1,30.12,NE,38,3.0,3.0,73,0.00,,,0.00,Wunderground v.1.15,2013-07-08 16:00:00,
2013-07-08 12:05:00,87.2,77.1,30.12,NNE,22,3.0,6.0,72,0.00,,,0.00,Wunderground v.1.15,2013-07-08 16:05:00,
2013-07-08 12:15:00,87.8,77.2,30.12,NE,49,3.0,3.0,71,0.00,,,0.00,Wunderground v.1.15,2013-07-08 16:15:00,
2013-07-08 12:20:00,87.7,77.5,30.12,NE,49,1.0,2.0,72,0.00,,,0.00,Wunderground v.1.15,2013-07-08 16:20:00,
2013-07-08 12:25:00,87.9,77.3,30.12,NE,38,1.0,2.0,71,0.00,,,0.00,Wunderground v.1.15,2013-07-08 16:25:00,
2013-07-08 12:30:00,88.1,77.5,30.12,NE,49,3.0,3.0,71,0.00,,,0.00,Wunderground v.1.15,2013-07-08 16:30:00,
2013-07-08 12:35:00,88.1,76.6,30.11,NE,34,4.0,5.0,69,0.00,,,0.00,Wunderground v.1.15,2013-07-08 16:35:00,
2013-07-08 12:45:00,88.3,76.8,30.11,NE,46,3.0,6.0,69,0.00,,,0.00,Wunderground v.1.15,2013-07-08 16:45:00,
2013-07-08 12:50:00,88.0,77.0,30.11,ENE,57,2.0,2.0,70,0.00,,,0.00,Wunderground v.1.15,2013-07-08 16:50:00,
2013-07-08 12:55:00,87.9,76.9,30.11,NE,49,2.0,2.0,70,0.00,,,0.00,Wunderground v.1.15,2013-07-08 16:55:00,
2013-07-08 13:00:00,88.2,77.2,30.11,NE,44,2.0,2.0,70,0.00,,,0.00,Wunderground v.1.15,2013-07-08 17:00:00,
2013-07-08 13:05:00,88.1,76.6,30.11,NE,45,2.0,5.0,69,0.00,,,0.00,Wunderground v.1.15,2013-07-08 17:05:00,
2013-07-08 13:10:00,88.2,76.3,30.11,NE,45,2.0,6.0,68,0.00,,,0.00,Wunderground v.1.15,2013-07-08 17:10:00,
2013-07-08 13:15:00,88.3,76.4,30.11,NE,44,5.0,6.0,68,0.00,,,0.00,Wunderground v.1.15,2013-07-08 17:15:00,
2013-07-08 13:20:00,88.5,77.0,30.11,NE,46,4.0,4.0,69,0.00,,,0.00,Wunderground v.1.15,2013-07-08 17:20:00,
2013-07-08 13:25:00,88.5,77.0,30.10,NE,36,3.0,5.0,69,0.00,,,0.00,Wunderground v.1.15,2013-07-08 17:25:00,
2013-07-08 13:30:00,88.6,77.1,30.11,NE,55,3.0,3.0,69,0.00,,,0.00,Wunderground v.1.15,2013-07-08 17:30:00,
2013-07-08 13:35:00,89.0,77.5,30.11,NE,52,3.0,3.0,69,0.00,,,0.00,Wunderground v.1.15,2013-07-08 17:35:00,
2013-07-08 13:40:00,89.3,76.9,30.11,NE,51,3.0,3.0,67,0.00,,,0.00,Wunderground v.1.15,2013-07-08 17:40:00,
2013-07-08 13:45:00,88.9,77.0,30.11,NE,40,2.0,3.0,68,0.00,,,0.00,Wunderground v.1.15,2013-07-08 17:45:00,
2013-07-08 13:50:00,88.4,76.9,30.10,NE,44,2.0,2.0,69,0.00,,,0.00,Wunderground v.1.15,2013-07-08 17:50:00,
2013-07-08 13:55:00,89.0,77.9,30.10,ENE,68,2.0,4.0,70,0.00,,,0.00,Wunderground v.1.15,2013-07-08 17:55:00,
2013-07-08 14:00:00,89.6,77.2,30.11,ENE,72,2.0,3.0,67,0.00,,,0.00,Wunderground v.1.15,2013-07-08 18:00:00,
2013-07-08 14:20:00,89.7,76.4,30.10,NNE,30,3.0,4.0,65,0.00,,,0.00,Wunderground v.1.15,2013-07-08 18:20:00,
2013-07-08 14:25:00,89.9,77.5,30.09,ESE,103,4.0,10.0,67,0.00,,,0.00,Wunderground v.1.15,2013-07-08 18:25:00,
2013-07-08 14:35:00,89.5,75.7,30.09,East,82,5.0,6.0,64,0.00,,,0.00,Wunderground v.1.15,2013-07-08 18:35:00,
2013-07-08 14:45:00,89.6,76.3,30.09,NE,54,4.0,6.0,65,0.00,,,0.00,Wunderground v.1.15,2013-07-08 18:45:00,
2013-07-08 14:50:00,89.5,75.7,30.09,ENE,76,5.0,5.0,64,0.00,,,0.00,Wunderground v.1.15,2013-07-08 18:50:00,
2013-07-08 15:00:00,89.9,76.1,30.08,ENE,78,3.0,3.0,64,0.00,,,0.00,Wunderground v.1.15,2013-07-08 19:00:00,
2013-07-08 15:05:00,90.2,76.4,30.08,NE,51,4.0,4.0,64,0.00,,,0.00,Wunderground v.1.15,2013-07-08 19:05:00,
2013-07-08 15:15:00,90.3,75.5,30.08,ESE,107,5.0,5.0,62,0.00,,,0.00,Wunderground v.1.15,2013-07-08 19:15:00,
2013-07-08 15:20:00,90.6,76.3,30.08,East,94,5.0,7.0,63,0.00,,,0.00,Wunderground v.1.15,2013-07-08 19:20:00,
2013-07-08 15:25:00,90.6,75.3,30.08,ENE,70,4.0,7.0,61,0.00,,,0.00,Wunderground v.1.15,2013-07-08 19:25:00,
2013-07-08 15:30:00,90.1,75.3,30.08,ESE,104,5.0,10.0,62,0.00,,,0.00,Wunderground v.1.15,2013-07-08 19:30:00,
2013-07-08 15:35:00,90.2,75.4,30.08,ESE,116,5.0,10.0,62,0.00,,,0.00,Wunderground v.1.15,2013-07-08 19:35:00,
2013-07-08 15:40:00,90.1,74.8,30.08,ESE,109,4.0,4.0,61,0.00,,,0.00,Wunderground v.1.15,2013-07-08 19:40:00,
2013-07-08 15:45:00,90.1,75.3,30.08,ESE,103,3.0,4.0,62,0.00,,,0.00,Wunderground v.1.15,2013-07-08 19:45:00,
2013-07-08 15:55:00,90.3,74.5,30.07,ENE,57,3.0,7.0,60,0.00,,,0.00,Wunderground v.1.15,2013-07-08 19:55:00,
2013-07-08 16:15:00,90.1,73.8,30.06,East,82,4.0,5.0,59,0.00,,,0.00,Wunderground v.1.15,2013-07-08 20:15:00,
2013-07-08 16:20:00,90.0,73.7,30.06,ENE,72,5.0,5.0,59,0.00,,,0.00,Wunderground v.1.15,2013-07-08 20:20:00,
2013-07-08 16:25:00,89.8,74.1,30.06,SE,125,4.0,5.0,60,0.00,,,0.00,Wunderground v.1.15,2013-07-08 20:25:00,
2013-07-08 16:30:00,89.6,73.9,30.06,ESE,117,3.0,11.0,60,0.00,,,0.00,Wunderground v.1.15,2013-07-08 20:30:00,
2013-07-08 16:35:00,89.9,75.1,30.05,ESE,107,2.0,11.0,62,0.00,,,0.00,Wunderground v.1.15,2013-07-08 20:35:00,
2013-07-08 16:40:00,90.0,74.2,30.05,ENE,67,4.0,4.0,60,0.00,,,0.00,Wunderground v.1.15,2013-07-08 20:40:00,
2013-07-08 16:45:00,89.7,74.5,30.05,ENE,70,3.0,4.0,61,0.00,,,0.00,Wunderground v.1.15,2013-07-08 20:45:00,
2013-07-08 16:50:00,89.8,75.5,30.05,East,84,2.0,2.0,63,0.00,,,0.00,Wunderground v.1.15,2013-07-08 20:50:00,
2013-07-08 16:55:00,89.9,74.2,30.05,East,95,2.0,2.0,60,0.00,,,0.00,Wunderground v.1.15,2013-07-08 20:55:00,
2013-07-08 17:00:00,89.6,74.9,30.05,East,96,2.0,5.0,62,0.00,,,0.00,Wunderground v.1.15,2013-07-08 21:00:00,
2013-07-08 17:05:00,89.4,74.2,30.05,East,90,2.0,5.0,61,0.00,,,0.00,Wunderground v.1.15,2013-07-08 21:05:00,
2013-07-08 17:15:00,89.7,75.4,30.05,East,87,4.0,6.0,63,0.00,,,0.00,Wunderground v.1.15,2013-07-08 21:15:00,
2013-07-08 17:20:00,89.7,74.9,30.05,ENE,78,3.0,3.0,62,0.00,,,0.00,Wunderground v.1.15,2013-07-08 21:20:00,
2013-07-08 17:45:00,88.8,75.0,30.05,ESE,102,3.0,3.0,64,0.00,,,0.00,Wunderground v.1.15,2013-07-08 21:45:00,
2013-07-08 17:50:00,88.8,75.5,30.05,ESE,110,4.0,6.0,65,0.00,,,0.00,Wunderground v.1.15,2013-07-08 21:50:00,
2013-07-08 17:55:00,89.0,75.7,30.04,ESE,122,4.0,6.0,65,0.00,,,0.00,Wunderground v.1.15,2013-07-08 21:55:00,
2013-07-08 18:00:00,88.3,75.0,30.04,ESE,116,3.0,3.0,65,0.00,,,0.00,Wunderground v.1.15,2013-07-08 22:00:00,
2013-07-08 18:05:00,87.8,74.6,30.04,ESE,116,1.0,3.0,65,0.00,,,0.00,Wunderground v.1.15,2013-07-08 22:05:00,
2013-07-08 18:15:00,87.7,74.9,30.04,ESE,102,2.0,3.0,66,0.00,,,0.00,Wunderground v.1.15,2013-07-08 22:15:00,
2013-07-08 18:30:00,87.5,75.2,30.04,East,101,0.0,0.0,67,0.00,,,0.00,Wunderground v.1.15,2013-07-08 22:30:00,
2013-07-08 18:35:00,87.3,75.4,30.05,East,96,0.0,0.0,68,0.00,,,0.00,Wunderground v.1.15,2013-07-08 22:35:00,
2013-07-08 18:40:00,87.0,75.2,30.05,East,97,0.0,0.0,68,0.00,,,0.00,Wunderground v.1.15,2013-07-08 22:40:00,
2013-07-08 18:45:00,86.6,75.2,30.05,East,96,0.0,2.0,69,0.00,,,0.00,Wunderground v.1.15,2013-07-08 22:45:00,
2013-07-08 18:50:00,86.2,74.8,30.05,East,97,1.0,2.0,69,0.00,,,0.00,Wunderground v.1.15,2013-07-08 22:50:00,
2013-07-08 18:55:00,86.1,74.7,30.05,East,94,1.0,2.0,69,0.00,,,0.00,Wunderground v.1.15,2013-07-08 22:55:00,
2013-07-08 19:00:00,86.3,75.4,30.05,East,94,1.0,1.0,70,0.00,,,0.00,Wunderground v.1.15,2013-07-08 23:00:00,
2013-07-08 19:05:00,86.5,75.1,30.05,ESE,111,1.0,2.0,69,0.00,,,0.00,Wunderground v.1.15,2013-07-08 23:05:00,
2013-07-08 19:15:00,86.4,75.0,30.05,East,98,2.0,4.0,69,0.00,,,0.00,Wunderground v.1.15,2013-07-08 23:15:00,
2013-07-08 19:20:00,86.2,74.8,30.05,East,98,2.0,2.0,69,0.00,,,0.00,Wunderground v.1.15,2013-07-08 23:20:00,
2013-07-08 19:25:00,85.9,75.0,30.05,East,98,1.0,2.0,70,0.00,,,0.00,Wunderground v.1.15,2013-07-08 23:25:00,
2013-07-08 19:30:00,85.5,74.6,30.05,East,98,1.0,1.0,70,0.00,,,0.00,Wunderground v.1.15,2013-07-08 23:30:00,
2013-07-08 19:40:00,84.7,74.7,30.05,East,98,1.0,4.0,72,0.00,,,0.00,Wunderground v.1.15,2013-07-08 23:40:00,
2013-07-08 19:45:00,84.4,74.4,30.05,East,98,1.0,4.0,72,0.00,,,0.00,Wunderground v.1.15,2013-07-08 23:45:00,
2013-07-08 20:00:00,83.5,73.9,30.06,East,98,0.0,0.0,73,0.00,,,0.00,Wunderground v.1.15,2013-07-09 00:00:00,
2013-07-08 20:05:00,83.2,73.6,30.07,East,98,0.0,0.0,73,0.00,,,0.00,Wunderground v.1.15,2013-07-09 00:05:00,
2013-07-08 20:10:00,82.9,73.8,30.07,East,98,0.0,0.0,74,0.00,,,0.00,Wunderground v.1.15,2013-07-09 00:10:00,
2013-07-08 20:20:00,82.4,73.7,30.07,East,98,0.0,0.0,75,0.00,,,0.00,Wunderground v.1.15,2013-07-09 00:20:00,
2013-07-08 20:25:00,82.1,73.4,30.08,East,98,0.0,0.0,75,0.00,,,0.00,Wunderground v.1.15,2013-07-09 00:25:00,
2013-07-08 20:30:00,81.9,73.2,30.07,East,98,0.0,0.0,75,0.00,,,0.00,Wunderground v.1.15,2013-07-09 00:30:00,
2013-07-08 20:35:00,81.6,73.3,30.08,East,98,0.0,0.0,76,0.00,,,0.00,Wunderground v.1.15,2013-07-09 00:35:00,
2013-07-08 20:45:00,81.2,72.9,30.09,East,98,0.0,0.0,76,0.00,,,0.00,Wunderground v.1.15,2013-07-09 00:45:00,
2013-07-08 20:50:00,81.1,73.2,30.09,East,98,0.0,0.0,77,0.00,,,0.00,Wunderground v.1.15,2013-07-09 00:50:00,
2013-07-08 20:55:00,80.9,73.0,30.09,East,98,0.0,0.0,77,0.00,,,0.00,Wunderground v.1.15,2013-07-09 00:55:00,
2013-07-08 21:00:00,80.6,72.7,30.10,East,98,0.0,0.0,77,0.00,,,0.00,Wunderground v.1.15,2013-07-09 01:00:00,
2013-07-08 21:05:00,80.3,72.8,30.10,East,98,0.0,0.0,78,0.00,,,0.00,Wunderground v.1.15,2013-07-09 01:05:00,
2013-07-08 21:10:00,80.2,72.7,30.10,East,98,0.0,0.0,78,0.00,,,0.00,Wunderground v.1.15,2013-07-09 01:10:00,
2013-07-08 21:15:00,79.9,72.4,30.10,East,98,0.0,0.0,78,0.00,,,0.00,Wunderground v.1.15,2013-07-09 01:15:00,
2013-07-08 21:20:00,79.8,72.7,30.11,East,98,0.0,0.0,79,0.00,,,0.00,Wunderground v.1.15,2013-07-09 01:20:00,
2013-07-08 21:25:00,79.7,72.6,30.11,East,98,0.0,0.0,79,0.00,,,0.00,Wunderground v.1.15,2013-07-09 01:25:00,
2013-07-08 21:30:00,79.6,72.5,30.11,East,98,0.0,0.0,79,0.00,,,0.00,Wunderground v.1.15,2013-07-09 01:30:00,
2013-07-08 21:55:00,79.0,71.9,30.11,East,98,0.0,0.0,79,0.00,,,0.00,Wunderground v.1.15,2013-07-09 01:55:00,
2013-07-08 22:00:00,78.9,72.2,30.11,East,98,0.0,0.0,80,0.00,,,0.00,Wunderground v.1.15,2013-07-09 02:00:00,
2013-07-08 22:10:00,78.7,72.0,30.12,East,98,0.0,0.0,80,0.00,,,0.00,Wunderground v.1.15,2013-07-09 02:10:00,
2013-07-08 22:30:00,78.2,71.5,30.13,East,98,0.0,0.0,80,0.00,,,0.00,Wunderground v.1.15,2013-07-09 02:30:00,
2013-07-08 22:40:00,78.0,71.7,30.13,East,98,0.0,0.0,81,0.00,,,0.00,Wunderground v.1.15,2013-07-09 02:40:00,
2013-07-08 22:45:00,78.0,71.7,30.13,East,98,0.0,0.0,81,0.00,,,0.00,Wunderground v.1.15,2013-07-09 02:45:00,
2013-07-08 22:50:00,77.9,71.6,30.13,East,98,0.0,0.0,81,0.00,,,0.00,Wunderground v.1.15,2013-07-09 02:50:00,
2013-07-08 22:55:00,77.8,71.5,30.13,East,98,0.0,0.0,81,0.00,,,0.00,Wunderground v.1.15,2013-07-09 02:55:00,
2013-07-08 23:00:00,77.8,71.5,30.13,East,98,0.0,0.0,81,0.00,,,0.00,Wunderground v.1.15,2013-07-09 03:00:00,
2013-07-08 23:05:00,77.7,71.4,30.13,East,98,0.0,0.0,81,0.00,,,0.00,Wunderground v.1.15,2013-07-09 03:05:00,
2013-07-08 23:20:00,77.5,71.2,30.13,East,98,0.0,0.0,81,0.00,,,0.00,Wunderground v.1.15,2013-07-09 03:20:00,
2013-07-08 23:25:00,77.4,71.1,30.13,East,98,0.0,0.0,81,0.00,,,0.00,Wunderground v.1.15,2013-07-09 03:25:00,
2013-07-08 23:35:00,77.2,70.9,30.13,East,98,0.0,0.0,81,0.00,,,0.00,Wunderground v.1.15,2013-07-09 03:35:00,
2013-07-08 23:40:00,77.1,71.2,30.13,East,98,0.0,0.0,82,0.00,,,0.00,Wunderground v.1.15,2013-07-09 03:40:00,
2013-07-08 23:45:00,77.0,71.1,30.13,East,98,0.0,0.0,82,0.00,,,0.00,Wunderground v.1.15,2013-07-09 03:45:00,
2013-07-08 23:50:00,76.9,71.0,30.13,East,98,0.0,0.0,82,0.00,,,0.00,Wunderground v.1.15,2013-07-09 03:50:00,
2013-07-08 23:55:00,76.7,70.8,30.13,East,98,0.0,0.0,82,0.00,,,0.00,Wunderground v.1.15,2013-07-09 03:55:00,